Atqasuk Edward Burnell Sr Mem, AK

5:39 PM AKDT on August 24, 2019 (GMT -0800)
Atqasuk Edward Burnell Sr Mem

Weather History for PATQ - July, 2019

Change the Weather History Date:

Wednesday, July 17, 2019

  Actual Average (WUND) Record (WUND)
Temperature  
Mean Temperature 49 °F -  
Max Temperature 54 °F - - (-1)
Min Temperature 44 °F - - (-1)
Degree Days  
Heating Degree Days 16    
Moisture  
Dew Point 43 °F    
Average Humidity 84    
Maximum Humidity 97    
Minimum Humidity 61    
Precipitation  
Precipitation 0.11 in - - ()
Sea Level Pressure  
Sea Level Pressure 29.76 in    
Wind  
Wind Speed 6 mph (NNE)    
Max Wind Speed 13 mph    
Max Gust Speed -    
Visibility 10 miles    
Events Rain    
Averages and records for this station are not official NWS values.
T = Trace of Precipitation, MM = Missing Value Source: NWS Daily Summary

Daily Weather History Graph

Daily Weather History Graph

Search for Another Location

Airport or City:

Astronomy

Dec. 31, 1969 Rise Set
Actual Time Sun does not set Sun does not set
Civil Twilight Sun does not set Sun does not set
Nautical Twilight Sun does not set Sun does not set
Astronomical Twilight Sun does not set Sun does not set
Moon No Moon Rise No Moon Set
Length of Visible Light 24h 00m
Length of Day
24h 00m
Full, 99% of the Moon is Illuminated
Jul 17
Full
Jul 24
Last Quarter
Jul 31
New
Aug 7
First Quarter
Aug 15
Full

Hourly Weather History & Observations

Time (AKDT) Temp. Windchill Dew Point Humidity Pressure Visibility Wind Dir Wind Speed Gust Speed Precip Events Conditions
12:56 AM 45.0 °F 41.2 °F 43.0 °F 93% 29.69 in 10.0 mi North 6.9 mph - 0.00 in Rain Light Rain
1:56 AM 44.1 °F 40.8 °F 43.0 °F 96% 29.69 in 10.0 mi NNE 5.8 mph - 0.01 in Rain Light Rain
2:56 AM 44.1 °F 40.8 °F 43.0 °F 96% 29.70 in 10.0 mi NNE 5.8 mph - 0.02 in Rain Light Rain
3:56 AM 44.1 °F 40.8 °F 43.0 °F 96% 29.70 in 10.0 mi NNE 5.8 mph - 0.00 in Rain Light Rain
4:56 AM 44.1 °F 40.8 °F 43.0 °F 96% 29.70 in 10.0 mi NNE 5.8 mph - 0.00 in Rain Light Rain
5:56 AM 44.1 °F 40.1 °F 43.0 °F 96% 29.71 in 10.0 mi NNE 6.9 mph - 0.01 in Rain Light Rain
6:56 AM 44.1 °F 39.0 °F 43.0 °F 96% 29.72 in 10.0 mi NNE 9.2 mph - 0.00 in Rain Light Rain
7:56 AM 45.0 °F 40.1 °F 44.1 °F 97% 29.72 in 10.0 mi NNE 9.2 mph - 0.01 in Rain Light Rain
8:56 AM 45.0 °F 40.6 °F 44.1 °F 97% 29.73 in 10.0 mi NNE 8.1 mph - 0.01 in Rain Light Rain
9:56 AM 45.0 °F 41.2 °F 44.1 °F 97% 29.74 in 10.0 mi NE 6.9 mph - 0.00 in Rain Light Rain
10:56 AM 46.0 °F 43.1 °F 44.1 °F 93% 29.75 in 10.0 mi NNE 5.8 mph - 0.03 in Rain Light Rain
11:11 AM 46.4 °F 43.5 °F 44.6 °F 93% 29.73 in 10.0 mi NNE 5.8 mph - 0.01 in Rain Light Rain
11:24 AM 46.4 °F 43.5 °F 44.6 °F 93% 29.73 in 10.0 mi NNE 5.8 mph - 0.01 in Rain Light Rain
11:26 AM 46.4 °F 43.5 °F 44.6 °F 93% 29.73 in 10.0 mi NNE 5.8 mph - 0.01 in Rain Light Rain
11:40 AM 46.4 °F 43.5 °F 44.6 °F 93% 29.72 in 10.0 mi NNE 5.8 mph - 0.02 in Rain Light Rain
11:53 AM 46.4 °F 44.3 °F 44.6 °F 93% 29.73 in 10.0 mi NNE 4.6 mph - 0.02 in Rain Light Rain
11:56 AM 46.9 °F - 44.1 °F 90% 29.75 in 10.0 mi North 4.6 mph - 0.02 in Rain Light Rain
12:05 PM 46.4 °F 43.5 °F 44.6 °F 93% 29.73 in 10.0 mi North 5.8 mph - 0.00 in Rain Light Rain
12:56 PM 46.9 °F - 44.1 °F 90% 29.76 in 10.0 mi Variable 3.5 mph - 0.00 in   Overcast
1:15 PM 46.4 °F 44.3 °F 44.6 °F 93% 29.75 in 10.0 mi North 4.6 mph - N/A   Overcast
2:09 PM 46.4 °F 45.2 °F 44.6 °F 93% 29.76 in 10.0 mi NNW 3.5 mph - N/A   Overcast
3:56 PM 48.9 °F - 44.1 °F 83% 29.79 in 10.0 mi NW 6.9 mph - N/A   Overcast
4:49 PM 50.0 °F - 42.8 °F 76% 29.77 in 9.0 mi NNW 3.5 mph - N/A   Scattered Clouds
4:56 PM 48.9 °F - 43.0 °F 80% 29.80 in 10.0 mi Calm Calm - N/A   Scattered Clouds
5:56 PM 51.1 °F - 43.0 °F 74% 29.80 in 10.0 mi Calm Calm - N/A   Mostly Cloudy
6:49 PM 53.6 °F - 42.8 °F 67% 29.78 in 10.0 mi Calm Calm - N/A   Mostly Cloudy
6:56 PM 53.1 °F - 42.1 °F 66% 29.81 in 10.0 mi Variable 3.5 mph - N/A   Mostly Cloudy
7:56 PM 54.0 °F - 43.0 °F 66% 29.81 in 10.0 mi NNE 6.9 mph - N/A   Overcast
8:36 PM 53.6 °F - 41.0 °F 62% 29.79 in 10.0 mi NNE 5.8 mph - N/A   Scattered Clouds
8:56 PM 52.0 °F - 39.0 °F 61% 29.81 in 10.0 mi North 9.2 mph - N/A   Clear
9:56 PM 52.0 °F - 39.9 °F 63% 29.82 in 10.0 mi NE 12.7 mph - N/A   Partly Cloudy
10:18 PM 51.8 °F - 39.2 °F 62% 29.80 in 10.0 mi NE 10.4 mph - N/A   Mostly Cloudy
10:29 PM 51.8 °F - 39.2 °F 62% 29.80 in 10.0 mi ENE 11.5 mph - N/A   Scattered Clouds
10:56 PM 51.1 °F - 41.0 °F 68% 29.82 in 10.0 mi ENE 9.2 mph - N/A   Clear
11:14 PM 51.8 °F - 41.0 °F 67% 29.80 in 10.0 mi NE 10.4 mph - N/A   Mostly Cloudy
11:56 PM 51.1 °F - 44.1 °F 77% 29.82 in 10.0 mi ESE 9.2 mph - N/A   Overcast